Weather Roundup
Issued by NWS Springfield, MO

Home | Current Version | Previous Version | Text Only | Print | Product List | Glossary On
Versions: 1 2 3 4 5 6 7 8 9 10 11 12 13 14 15 16 17 18 19 20 21 22 23 24 25 26 27 28 29 30 31 32 33 34 35 36 37 38 39 40 41 42 43 44 45 46 47 48 49 50
000
NZUS99 KSGF 291207
HRRSGF

HOURLY WEATHER
NATIONAL WEATHER SERVICE SPRINGFIELD MO
700 AM CDT SAT APR 29 2017

......SGF CWA......

CITY           SKY/WX    TMP DP  RH WIND       PRES   REMARKS
SPRINGFIELD    TSTM      60  59  96 E12G28    29.70S VSB 3/4
JOPLIN         CLOUDY    57  56  96 NE14      29.71S
6HR MIN TEMP:  56; 6HR MAX TEMP:  63; 6HR PCP:  0.40;

WEST PLAINS    TSTM      62  60  93 NE22G31   29.76F FOG
6HR MIN TEMP:  62; 6HR MAX TEMP:  66; 6HR PCP:  0.60;

ROLLA          LGT RAIN  57  50  78 E16G24    29.80F
6HR MIN TEMP:  57; 6HR MAX TEMP:  58; 6HR PCP:  0.52;

OSAGE BEACH    CLOUDY    57  56  96 NE10      29.80S
BRANSON        FOG       61  61 100 N8        29.74R VSB 1

......SURROUNDING SGF CWA......

CITY           SKY/WX    TMP DP  RH WIND       PRES   REMARKS
CHANUTE        LGT RAIN  51  49  92 NE12G35   29.74F
PARSONS        CLOUDY    53  51  93 NE13G28   29.70R
COFFEYVILLE    CLOUDY    53  51  93 NE18G33   29.70R
EMPORIA        LGT RAIN  45  45 100 N14G21    29.87R
GROVE OK       DRIZZLE   61  59  94 NE7G23    29.65R
ROGERS AR      TSTM      63  63 100 SE9       29.67R
SILOAM SPRINGS CLOUDY    64  61  88 E5        29.63S
HARRISON AR    CLOUDY    64  64 100 CALM      29.72S FOG
NEAR YELLVILLE CLOUDY   N/A N/A N/A CALM      29.69R

......KANSAS AND MISSOURI......

CITY           SKY/WX    TMP DP  RH WIND       PRES   REMARKS
KANSAS CTY INT LGT RAIN  46  45  96 NE18      29.90S FOG
DOWNTOWN KC    LGT RAIN  48  46  93 NE13      29.88S
COLUMBIA       LGT RAIN  53  53 100 NE17G26   29.82F
SEDALIA        TSTM      51  51 100 NE7       29.87R
ST JOSEPH      CLOUDY    45  44  97 NE14      29.97R
ST LOUIS       TSTM      58  56  93 E14       29.86F
SPIRIT OF STL  CLOUDY    58  57  97 E17       29.83F THUNDER FOG
KIRKSVILLE     LGT RAIN  46  32  58 NE17      29.95F
WICHITA        TSTM      44  43  96 N24G32    29.83S
TOPEKA         LGT RAIN  46  46 100 N12       29.90F FOG
OLATHE         LGT RAIN  45  45 100 NE14G28   29.82F

......TENNESSEE......

CITY           SKY/WX    TMP DP  RH WIND       PRES   REMARKS
MEMPHIS        CLOUDY    75  69  81 S10       29.87R
NASHVILLE      PTSUNNY   73  68  84 S9        29.99R

......ARKANSAS.......

CITY           SKY/WX    TMP DP  RH WIND       PRES   REMARKS
FAYETTEVILLE   CLOUDY    65  65 100 N3        29.64F FOG
FT SMITH       CLOUDY    77  70  79 S7        29.61S
LITTLE ROCK    MOCLDY    76  70  82 S13G23    29.75R

......OKLAHOMA.......

CITY           SKY/WX    TMP DP  RH WIND       PRES   REMARKS
TULSA          LGT RAIN  58  56  93 N16       29.59F
PONCA CITY     LGT RAIN  48  45  89 N21G33    29.72F
MCALESTER      CLOUDY    78  70  76 S12G25    29.55F
OKLAHOMA CITY  TSTM      49  48  97 N36G46    29.65S

......IOWA............

CITY           SKY/WX    TMP DP  RH WIND       PRES   REMARKS
DES MOINES     CLOUDY    45  35  68 NE16G24   30.09R
QUAD CITIES    CLOUDY    47  43  86 NE15      30.07F

......ILLINOIS........

CITY           SKY/WX    TMP DP  RH WIND       PRES   REMARKS
QUINCY         CLOUDY    51  50  96 NE16      29.97R FOG
CHICAGO        CLOUDY    46  35  65 NE12G23   30.16R



USA.gov is the U.S. government's official web portal to all federal, state and local government web resources and services.